User: anonymous   Login
Location: Plzen
(49.7500°N, 13.3670°E)
Time: 20:48:17
(UTC+01:00)
Language:

ISS - Orbit

View from above orbital plane
View from above orbital plane
View from above satellite
View from above satellite

Ground track
Ground track

The orbit data is extracted from the following two-line orbital elements,

1 25544U 98067A   22338.67309894  .00011556  00000-0  21204-3 0  9994
2 25544  51.6436 212.0175 0004448 126.6825 346.8676 15.49739460371622
Epoch (UTC): 04 December 2022 16:09:15
Eccentricity: 0.0004448
inclination: 51.6436°
perigee height: 414 km
apogee height: 420 km
right ascension of ascending node: 212.0175°
argument of perigee: 126.6825°
revolutions per day: 15.49739460
mean anomaly at epoch: 346.8676°
orbit number at epoch: 37162

The dashed part of the orbit path shows where the satellite is in the earth's shadow,  

DLR